Date String (YYYY-MM-DD hh:mm:ss) UTC,Instrument flags,Ambient pressure (hPa),Sample flow (lpm),Bypass flow (lpm),Sample temperature (°C),Ambient temperature (°C),ASC tube jacket temperature (°C),LED temperature (°C),Box temperature (°C),Sample RH (%),Span deviation,Mass concentration (μg/m³),Mass concentration (μg/m³),Mass concentration (μg/m³)
DateTimeUTC,F1_M11,P_M11,Q1_M11,Q2_M11,T1_M11,T2_M11,T3_M11,T4_M11,T5_M11,U1_M11,ZSPAN_M11,X0_M11,X2_M11,X1_M11
2022-12-18 05:00:00,,0821.9,5.01,0.00,21.4,19.6,00.0,30.4,23.1,05.7,0002.5,0014.39,0007.85,0006.72
2022-12-18 05:01:00,,0822.0,5.02,0.00,21.4,19.6,00.0,30.4,23.0,05.8,0002.3,0015.09,0007.92,0006.74
2022-12-18 05:02:00,,0821.8,4.98,0.00,21.4,20.3,00.0,30.4,23.2,05.8,0002.3,0016.04,0007.87,0006.71
2022-12-18 05:03:00,,0822.2,5.01,0.00,21.5,21.5,00.0,30.3,23.5,05.8,0002.7,0017.82,0007.87,0006.67
2022-12-18 05:04:00,,0821.9,4.97,0.00,21.7,21.7,00.0,30.4,23.6,05.7,0002.5,0018.56,0007.88,0006.64
2022-12-18 05:05:00,,0822.1,5.03,0.00,21.6,21.1,00.0,30.4,23.4,05.7,0002.1,0018.94,0007.91,0006.65
2022-12-18 05:06:00,,0822.0,4.99,0.00,21.6,20.6,00.0,30.4,23.3,05.7,0001.9,0019.40,0007.91,0006.65
2022-12-18 05:07:00,,0821.8,4.99,0.00,21.5,20.2,00.0,30.4,23.2,05.8,0001.8,0019.22,0007.78,0006.55
2022-12-18 05:08:00,,0821.8,5.02,0.00,21.5,19.8,00.0,30.4,23.0,05.8,0002.2,0019.23,0007.60,0006.36
2022-12-18 05:09:00,,0821.8,5.00,0.00,21.4,19.5,00.0,30.4,22.9,05.8,0002.5,0019.58,0007.53,0006.22
2022-12-18 05:10:00,,0821.8,4.95,0.00,21.4,19.3,00.0,30.4,22.9,05.9,0002.6,0019.43,0007.42,0006.09
2022-12-18 05:11:00,,0821.8,5.00,0.00,21.3,19.4,00.0,30.4,22.9,05.9,0002.5,0018.74,0007.24,0005.93
2022-12-18 05:12:00,,0821.8,5.03,0.00,21.4,20.6,00.0,30.3,23.2,05.9,0002.4,0018.30,0007.02,0005.73
2022-12-18 05:13:00,,0821.8,4.97,0.00,21.5,21.6,00.0,30.3,23.4,05.8,0002.4,0017.72,0006.93,0005.61
2022-12-18 05:14:00,,0821.8,5.03,0.00,21.6,21.4,00.0,30.3,23.4,05.8,0002.3,0016.30,0006.85,0005.49
2022-12-18 05:15:00,,0821.8,4.97,0.00,21.5,20.9,00.0,30.4,23.3,05.8,0002.3,0016.82,0006.77,0005.36
2022-12-18 05:16:00,,0821.8,5.03,0.00,21.5,20.5,00.0,30.4,23.2,05.9,0002.3,0016.78,0006.66,0005.22
2022-12-18 05:17:00,,0821.8,4.94,0.00,21.5,20.2,00.0,30.4,23.1,05.9,0003.0,0016.75,0006.52,0005.07
2022-12-18 05:18:00,,0821.8,5.02,0.00,21.4,19.9,00.0,30.4,23.1,05.9,0003.0,0016.70,0006.53,0005.00
2022-12-18 05:19:00,,0821.8,5.02,0.00,21.4,19.7,00.0,30.4,23.0,05.9,0003.2,0017.16,0006.55,0005.02
2022-12-18 05:20:00,,0821.8,4.98,0.00,21.3,19.5,00.0,30.4,22.9,05.9,0003.4,0017.47,0006.50,0005.02
2022-12-18 05:21:00,,0821.8,4.99,0.00,21.3,19.4,00.0,30.3,22.9,05.9,0003.4,0017.85,0006.48,0005.01
2022-12-18 05:22:00,,0821.8,5.04,0.00,21.3,20.5,00.0,30.3,23.1,05.9,0003.1,0018.46,0006.52,0005.02
2022-12-18 05:23:00,,0821.8,4.97,0.00,21.5,21.5,00.0,30.2,23.4,05.9,0003.3,0018.23,0006.58,0005.08
2022-12-18 05:24:00,,0821.8,5.02,0.00,21.6,21.4,00.0,30.3,23.4,05.9,0003.9,0018.06,0006.64,0005.13
2022-12-18 05:25:00,,0821.7,4.97,0.00,21.5,20.8,00.0,30.3,23.3,05.9,0003.5,0017.75,0006.61,0005.15
2022-12-18 05:26:00,,0821.7,5.03,0.00,21.5,20.3,00.0,30.4,23.2,05.9,0003.7,0017.35,0006.59,0005.20
2022-12-18 05:27:00,,0821.7,4.96,0.00,21.4,20.0,00.0,30.4,23.1,05.9,0003.8,0016.61,0006.54,0005.19
2022-12-18 05:28:00,,0821.8,5.00,0.00,21.4,19.7,00.0,30.3,23.0,05.9,0003.8,0016.14,0006.47,0005.16
2022-12-18 05:29:00,,0821.7,5.01,0.00,21.3,19.4,00.0,30.3,22.9,06.0,0003.8,0015.96,0006.41,0005.13
2022-12-18 05:30:00,,0821.6,5.03,0.00,21.3,19.2,00.0,30.3,22.8,06.0,0003.2,0016.11,0006.37,0005.08
2022-12-18 05:31:00,,0821.6,4.99,0.00,21.2,19.5,00.0,30.3,22.8,06.0,0003.1,0015.54,0006.31,0005.01
2022-12-18 05:32:00,,0821.6,5.00,0.00,21.3,20.7,00.0,30.2,23.1,06.0,0002.9,0015.20,0006.26,0004.98
2022-12-18 05:33:00,,0821.6,4.97,0.00,21.4,21.5,00.0,30.2,23.3,06.0,0000.4,0015.03,0006.21,0004.93
2022-12-18 05:34:00,,0821.7,5.03,0.00,21.5,21.1,00.0,30.3,23.3,05.9,0001.1,0015.14,0006.18,0004.88
2022-12-18 05:35:00,,0821.7,4.99,0.00,21.4,20.5,00.0,30.3,23.2,06.0,0002.0,0014.79,0006.09,0004.83
2022-12-18 05:36:00,,0821.5,5.00,0.00,21.4,20.0,00.0,30.3,23.0,06.0,0000.4,0014.44,0006.01,0004.78
2022-12-18 05:37:00,,0821.5,5.02,0.00,21.3,19.6,00.0,30.3,22.9,06.0,0000.0,0014.47,0005.97,0004.70
2022-12-18 05:38:00,,0821.5,4.99,0.00,21.3,19.4,00.0,30.3,22.8,06.0,0000.0,0014.75,0005.92,0004.64
2022-12-18 05:39:00,,0821.4,4.97,0.00,21.2,19.2,00.0,30.2,22.7,06.0,0000.0,0014.61,0005.85,0004.58
2022-12-18 05:40:00,,0821.5,5.02,0.00,21.2,19.5,00.0,30.2,22.8,06.1,0000.0,0014.28,0005.76,0004.51
2022-12-18 05:41:00,,0821.5,5.00,0.00,21.3,20.8,00.0,30.1,23.1,06.0,0000.0,0013.63,0005.64,0004.44
2022-12-18 05:42:00,,0821.5,5.01,0.00,21.4,21.6,00.0,30.2,23.3,06.0,0001.8,0012.90,0005.58,0004.38
2022-12-18 05:43:00,,0821.5,4.97,0.00,21.4,21.2,00.0,30.2,23.3,06.0,0003.1,0013.01,0005.46,0004.29
2022-12-18 05:44:00,,0821.4,5.05,0.00,21.4,20.7,00.0,30.2,23.2,06.0,0002.9,0012.29,0005.32,0004.22
2022-12-18 05:45:00,,0821.4,4.95,0.00,21.4,20.2,00.0,30.3,23.1,06.0,0003.1,0011.80,0005.15,0004.14
2022-12-18 05:46:00,,0821.4,5.03,0.00,21.3,19.9,00.0,30.3,23.0,06.0,0003.2,0011.52,0005.04,0004.06
2022-12-18 05:47:00,,0821.4,5.03,0.00,21.3,19.8,00.0,30.3,23.0,06.0,0002.7,0011.78,0004.96,0003.98
2022-12-18 05:48:00,,0821.5,4.96,0.00,21.3,19.6,00.0,30.2,22.9,06.0,0002.0,0011.60,0004.87,0003.93
2022-12-18 05:49:00,,0821.4,5.01,0.00,21.2,19.4,00.0,30.2,22.8,06.0,0001.9,0012.00,0004.85,0003.92
2022-12-18 05:50:00,,0821.4,5.02,0.00,21.2,19.2,00.0,30.2,22.7,06.0,0002.7,0012.15,0004.89,0003.94
2022-12-18 05:51:00,,0821.4,5.00,0.00,21.2,19.8,00.0,30.2,22.8,06.0,0003.2,0012.47,0004.90,0003.95
2022-12-18 05:52:00,,0821.5,4.99,0.00,21.3,21.0,00.0,30.1,23.1,06.0,0003.6,0013.67,0004.97,0003.97
2022-12-18 05:53:00,,0821.5,4.97,0.00,21.4,21.5,00.0,30.2,23.3,06.0,0003.4,0014.69,0004.98,0003.97
2022-12-18 05:54:00,,0821.5,5.02,0.00,21.4,20.9,00.0,30.2,23.2,06.0,0003.3,0015.18,0005.02,0003.98
2022-12-18 05:55:00,,0821.4,5.00,0.00,21.3,20.2,00.0,30.2,23.0,06.0,0000.4,0016.14,0005.08,0004.00
2022-12-18 05:56:00,,0821.4,4.98,0.00,21.3,19.8,00.0,30.2,22.9,06.0,0001.0,0016.86,0005.19,0004.04
2022-12-18 05:57:00,,0821.4,5.03,0.00,21.2,19.7,00.0,30.2,22.8,06.0,0000.7,0017.42,0005.25,0004.07
2022-12-18 05:58:00,,0821.4,5.01,0.00,21.2,19.7,00.0,30.2,22.9,06.0,0000.0,0017.53,0005.31,0004.10
2022-12-18 05:59:00,,0821.4,4.95,0.00,21.2,19.7,00.0,30.2,22.9,06.0,0000.0,0017.49,0005.33,0004.13
